Starlink 1276

operational
NORAD ID: 45368 Int'l Des: 2020-019 Owner: SPXS Country: US Constellation: starlink
LEOCIRCULARSTARLINK_TYPE

About Starlink 1276

Description loading...

Live Position

Loading 3D Globe...

Upcoming Passes

Altitude History

Altitude vs Time

uPlot chart will show altitude changes over time

Two-Line Element Set

1 45368U 20019J 25303.64473696 -.00000755 00000-0 -31821-4 0 9994
2 45368 53.0551 30.4123 0001549 89.6219 270.4947 15.06391923310134
Epoch: Oct 30, 2025 • Age: 18 hours

Current Status

Altitude 548.1 km
Velocity 7.59 km/s
Sub-Earth Point 0.32°N, 147.41°W
Launch Date Mar 18, 2020
Age 5.6 years
Type internet

Technical Details

Classification Payload
Mass 260.00 kg
Dry Mass 248.00 kg
Total Mass 260.00 kg
Length 0.20 m
Diameter 2.80 m
Span 9.00 m
Shape Box + pan
Manufacturer SPXS
Bus Type Starlink
Phase Status In Orbit
Owner/State SPXS/US

Large Constellations

Loading constellations...